Weather reports worldwide

Advertisment
Nashville International, United States of America (72327): temperature & dewpoint: 11.09.2019 16:00:00 - 17.09.2019 16:00:00 (CDT)Nashville International, United States of America (72327): wind speed: 11.09.2019 16:00:00 - 17.09.2019 16:00:00 (CDT)Nashville International, United States of America (72327): wind direction: 11.09.2019 16:00:00 - 17.09.2019 16:00:00 (CDT)Nashville International, United States of America (72327): reduced air pressure: 11.09.2019 16:00:00 - 17.09.2019 16:00:00 (CDT)Nashville International, United States of America (72327): visibility: 11.09.2019 16:00:00 - 17.09.2019 16:00:00 (CDT)Nashville International, United States of America (72327): precipitation: 11.09.2019 16:00:00 - 17.09.2019 16:00:00 (CDT)
Date & Time tt [°C] td [°C] ff [km/h] ff [kn] dd ppp [hPa] vv [km] rr [mm]
17.09.2019 16:00:00 34,4 16,7 22 12 NNE 1014,7 16 -
17.09.2019 15:00:00 35,0 17,2 24 13 NNE 1015,1 16 -
17.09.2019 14:00:00 35,0 17,8 9 5 NNE 1015,8 16 -
17.09.2019 13:00:00 33,9 18,3 11 6 NNE 1016,4 16 0,0
17.09.2019 12:00:00 33,9 18,9 13 7 N 1016,8 16 -
17.09.2019 11:00:00 33,3 19,4 9 5 NW 1017,3 16 -
17.09.2019 10:00:00 30,6 20,0 5 3 W 1017,4 16 0,0
17.09.2019 09:00:00 28,3 20,0 5 3 W 1017,3 15 -
17.09.2019 08:00:00 26,1 20,0 0 0 N 1017,1 15 -
17.09.2019 07:00:00 22,8 18,9 0 0 N 1016,8 15 0,0
17.09.2019 06:00:00 23,3 18,9 0 0 N 1016,1 16 -
17.09.2019 05:00:00 23,3 18,9 0 0 N 1015,7 16 -
17.09.2019 04:00:00 23,3 18,9 0 0 N 1015,3 16 0,0
17.09.2019 03:00:00 23,9 19,4 5 3 S 1015,5 16 -
17.09.2019 02:00:00 24,4 18,9 0 0 N 1015,7 16 -
17.09.2019 01:00:00 25,0 18,3 0 0 N 1015,8 16 0,0
17.09.2019 00:00:00 24,4 18,9 8 4 S 1015,9 16 -
16.09.2019 23:00:00 26,1 18,3 0 0 N 1016,0 16 -
16.09.2019 22:00:00 27,8 17,8 0 0 N 1015,9 16 0,0
16.09.2019 21:00:00 28,9 17,2 0 0 N 1015,8 16 -
16.09.2019 20:00:00 28,9 17,2 0 0 N 1015,6 16 -
16.09.2019 19:00:00 32,8 15,6 11 6 N 1015,5 16 0,0
16.09.2019 18:00:00 35,0 13,9 11 6 N 1015,7 16 -
16.09.2019 17:00:00 35,6 15,6 13 7 N 1015,7 16 -
16.09.2019 16:00:00 36,1 15,0 0 0 N 1015,8 16 0,0
16.09.2019 15:00:00 36,7 15,6 11 6 N 1016,5 16 -
16.09.2019 14:00:00 36,1 15,6 9 5 NNE 1017,3 16 -
16.09.2019 13:00:00 35,6 16,1 11 6 N 1018,1 16 0,0
16.09.2019 12:00:00 34,4 16,7 8 4 - 1018,9 16 -
16.09.2019 11:00:00 33,3 18,9 5 3 - 1019,5 16 -
16.09.2019 10:00:00 30,6 19,4 0 0 N 1019,8 16 0,0
16.09.2019 09:00:00 28,3 20,6 0 0 N 1019,9 16 -
16.09.2019 08:00:00 25,6 20,0 0 0 N 1019,8 15 -
16.09.2019 07:00:00 22,2 18,9 0 0 N 1019,4 15 0,0
16.09.2019 06:00:00 21,7 19,4 5 3 S 1018,9 16 -
16.09.2019 05:00:00 22,2 19,4 5 3 SSW 1018,3 16 -
16.09.2019 04:00:00 22,8 19,4 0 0 N 1018,1 16 0,0
16.09.2019 03:00:00 22,8 19,4 0 0 N 1017,9 16 -
16.09.2019 02:00:00 23,3 19,4 0 0 N 1018,1 16 -
16.09.2019 01:00:00 25,6 19,4 0 0 N 1018,1 16 0,0
16.09.2019 00:00:00 25,0 19,4 5 3 S 1018,1 16 -
15.09.2019 23:00:00 24,4 19,4 9 5 S 1018,3 16 -
15.09.2019 22:00:00 26,7 18,9 0 0 N 1018,3 16 0,0
15.09.2019 21:00:00 27,8 18,9 0 0 N 1017,9 16 -
15.09.2019 20:00:00 30,0 18,3 8 4 E 1017,5 16 -
15.09.2019 19:00:00 31,7 17,2 9 5 E 1017,0 16 0,0
15.09.2019 18:00:00 33,9 17,8 8 4 ENE 1016,9 16 -
15.09.2019 17:00:00 35,0 16,7 0 0 N 1016,8 16 -
15.09.2019 16:00:00 35,0 18,3 13 7 NNE 1017,3 16 0,0
15.09.2019 15:00:00 35,6 18,9 0 0 N 1018,0 16 -
15.09.2019 14:00:00 35,0 17,8 8 4 NW 1019,3 16 -
15.09.2019 13:00:00 34,4 18,3 9 5 NNW 1020,2 16 0,0
15.09.2019 12:00:00 32,8 18,9 0 0 N 1020,6 16 -
15.09.2019 11:00:00 32,2 18,9 0 0 N 1021,2 16 -
15.09.2019 10:00:00 27,8 18,3 5 3 S 1021,9 16 0,0
15.09.2019 09:00:00 22,8 17,8 0 0 N 1021,9 16 -
15.09.2019 08:00:00 20,0 16,7 0 0 N 1021,5 16 -
15.09.2019 07:00:00 18,9 16,7 0 0 N 1021,2 16 0,0
15.09.2019 06:00:00 18,9 16,1 0 0 N 1020,9 16 -
15.09.2019 05:00:00 20,0 15,6 5 3 E 1020,6 16 -
15.09.2019 04:00:00 21,1 16,1 9 5 ENE 1020,8 16 0,0
15.09.2019 03:00:00 21,7 15,6 5 3 N 1020,9 16 -
15.09.2019 02:00:00 21,7 15,0 0 0 N 1021,1 16 -
15.09.2019 01:00:00 23,9 14,4 5 3 E 1021,2 16 0,0
15.09.2019 00:00:00 24,4 13,9 5 3 NE 1021,5 16 -
14.09.2019 23:00:00 25,0 13,9 8 4 E 1021,8 16 -
14.09.2019 22:00:00 22,8 15,6 8 4 NNE 1021,7 16 0,0
14.09.2019 21:00:00 27,2 16,1 5 3 NNE 1021,5 16 -
14.09.2019 20:00:00 27,8 16,1 13 7 NE 1021,2 16 -
14.09.2019 19:00:00 29,4 16,7 15 8 NNE 1020,9 16 0,0
14.09.2019 18:00:00 32,2 17,2 18 10 NNE 1020,6 16 -
14.09.2019 17:00:00 33,3 17,8 13 7 N 1020,3 16 -
14.09.2019 16:00:00 33,9 17,8 15 8 N 1020,8 16 0,0
14.09.2019 15:00:00 33,9 17,8 16 9 NNW 1021,2 16 -
14.09.2019 14:00:00 33,3 18,3 9 5 NNE 1022,0 16 -
14.09.2019 13:00:00 32,8 18,3 9 5 - 1022,7 16 0,0
14.09.2019 12:00:00 31,1 18,3 5 3 ENE 1023,4 16 -
14.09.2019 11:00:00 29,4 17,8 0 0 N 1023,9 16 -
14.09.2019 10:00:00 28,3 16,7 13 7 E 1024,2 16 0,0
14.09.2019 09:00:00 26,7 16,7 11 6 NNE 1024,3 16 -
14.09.2019 08:00:00 24,4 16,1 11 6 N 1023,8 16 -
14.09.2019 07:00:00 23,3 16,7 8 4 N 1023,2 16 0,0
14.09.2019 06:00:00 23,3 16,7 8 4 NNW 1022,8 16 -
14.09.2019 05:00:00 24,4 16,7 11 6 NNW 1022,0 16 -
14.09.2019 04:00:00 24,4 17,2 8 4 N 1021,9 16 0,0
14.09.2019 03:00:00 25,6 17,2 5 3 N 1021,8 16 -
14.09.2019 02:00:00 26,1 17,8 8 4 N 1021,5 16 -
14.09.2019 01:00:00 26,7 18,9 9 5 N 1021,3 16 0,0
14.09.2019 00:00:00 27,2 20,0 11 6 NNW 1020,9 16 -
13.09.2019 23:00:00 28,3 20,0 8 4 NW 1020,6 16 -
13.09.2019 22:00:00 27,2 20,0 0 0 N 1020,5 16 0,0
13.09.2019 21:00:00 28,9 19,4 0 0 N 1020,1 16 -
13.09.2019 20:00:00 31,7 18,9 0 0 N 1019,3 16 -
13.09.2019 19:00:00 31,7 20,0 9 5 N 1018,9 16 -
13.09.2019 18:00:00 33,3 20,0 11 6 ENE 1018,8 16 0,0
13.09.2019 17:00:00 33,9 20,0 16 9 NNE 1018,7 16 0,0
13.09.2019 16:00:00 35,6 19,4 11 6 NNE 1018,9 16 0,0
13.09.2019 15:00:00 35,0 18,3 8 4 NW 1019,4 16 -
13.09.2019 14:00:00 35,0 17,8 9 5 WSW 1019,9 16 -
13.09.2019 13:00:00 36,1 19,4 13 7 W 1020,4 16 0,0
13.09.2019 12:00:00 34,4 19,4 5 3 - 1020,9 16 -
13.09.2019 11:00:00 33,9 21,1 5 3 - 1021,2 16 -
13.09.2019 10:00:00 31,7 21,7 8 4 WSW 1021,1 16 0,0
13.09.2019 09:00:00 28,9 21,1 0 0 N 1021,1 16 -
13.09.2019 08:00:00 26,1 20,6 5 3 S 1020,8 16 -
13.09.2019 07:00:00 23,3 20,6 0 0 N 1020,4 15 0,0
13.09.2019 06:00:00 23,3 20,6 0 0 N 1019,9 16 -
13.09.2019 05:00:00 23,3 20,6 0 0 N 1019,4 15 -
13.09.2019 04:00:00 24,4 21,1 0 0 N 1019,5 13 0,0
13.09.2019 03:00:00 25,0 21,1 0 0 N 1019,6 8 -
13.09.2019 02:00:00 24,4 21,1 5 3 S 1019,4 16 -
13.09.2019 01:00:00 25,6 21,1 0 0 N 1019,6 16 0,0
13.09.2019 00:00:00 25,6 21,1 5 3 WNW 1019,6 16 -
12.09.2019 23:00:00 27,2 20,6 5 3 S 1019,5 16 -
12.09.2019 22:00:00 28,3 20,0 5 3 S 1019,0 16 0,0
12.09.2019 21:00:00 30,0 19,4 5 3 ESE 1018,9 16 -
12.09.2019 20:00:00 30,6 19,4 9 5 E 1018,6 16 -
12.09.2019 19:00:00 32,2 18,9 11 6 NE 1018,5 16 0,0
12.09.2019 18:00:00 34,4 17,8 9 5 ENE 1018,3 16 -
12.09.2019 17:00:00 35,0 18,3 9 5 E 1018,2 16 -
12.09.2019 16:00:00 35,6 18,9 9 5 SE 1018,6 16 0,0
12.09.2019 15:00:00 35,0 18,9 8 4 W 1019,0 16 -
12.09.2019 14:00:00 35,0 19,4 8 4 S 1019,7 16 -
12.09.2019 13:00:00 32,8 19,4 9 5 ENE 1020,9 16 0,0
12.09.2019 12:00:00 33,9 20,0 8 4 NNE 1021,4 16 -
12.09.2019 11:00:00 32,2 20,6 0 0 N 1021,8 16 -
12.09.2019 10:00:00 30,6 20,0 8 4 NNE 1022,3 16 0,0
12.09.2019 09:00:00 28,3 20,6 0 0 N 1022,2 16 -
12.09.2019 08:00:00 24,4 20,6 0 0 N 1021,9 16 -
12.09.2019 07:00:00 22,8 20,0 0 0 N 1021,6 16 0,0
12.09.2019 06:00:00 22,2 20,0 8 4 SSE 1021,0 16 -
12.09.2019 05:00:00 22,2 20,0 8 4 S 1020,3 16 -
12.09.2019 04:00:00 22,8 20,0 0 0 N 1019,7 16 0,0
12.09.2019 03:00:00 22,8 20,0 0 0 N 1019,6 16 -
12.09.2019 02:00:00 23,3 20,6 5 3 SE 1019,7 16 -
12.09.2019 01:00:00 22,8 20,6 9 5 S 1020,1 16 0,0
12.09.2019 00:00:00 24,4 20,6 5 3 S 1020,3 16 -
11.09.2019 23:00:00 26,1 20,0 0 0 N 1020,4 16 -
11.09.2019 22:00:00 25,6 20,0 8 4 S 1020,5 16 0,0
11.09.2019 21:00:00 26,7 20,6 0 0 N 1020,5 16 -
11.09.2019 20:00:00 28,3 20,6 11 6 S 1020,1 16 -
11.09.2019 19:00:00 29,4 20,0 11 6 S 1020,1 16 0,0
11.09.2019 18:00:00 31,7 19,4 24 13 SSE 1020,3 16 -
11.09.2019 17:00:00 35,0 17,8 9 5 S 1019,7 16 -
11.09.2019 16:00:00 35,6 18,3 9 5 SW 1020,2 16 0,0

tt = temperature
td = dewpoint
ff = wind speed
dd = wind direction
ppp = reduced air pressure
vv = visibility
rr = precipitation

Next stations